Flag for French Polynesia Weather past 2 weeks in Taiohae, Marquesas Islands, French Polynesia

Now
81 °F

Scattered clouds.


Feels Like: 86 °F
Forecast: 78 / 83 °F
Wind: 10 mph from Southeast

Location: Atuona

Current Time: May 27, 2015 at 5:25:48 PM

Latest Report: May 27, 2015 at 3:30 PM


Visibility: 19 mi

Pressure: 29.87 "Hg

Humidity: 73%

Dew point: 72 °F

Location of TaiohaeLocation

Historic Weather in Taiohae — Graph

°F

Taiohae temperature yesterday

Maximum temperature yesterday: 83 °F (at 12:30 PM)
Minimum temperature yesterday: 76 °F (at 5:30 AM)
Average temperature yesterday: 79 °F

Past Weeks' High & Low Weather Summary

 TemperatureHumidityPressure
High91 °F (May 20, 10:30 AM)92% (May 22, 7:30 AM)30.00 "Hg (May 22, 7:30 AM)
Low73 °F (May 25, 4:30 AM)53% (May 20, 10:30 AM)29.80 "Hg (May 17, 3:30 PM)
Average79 °F79%29.90 "Hg
* Reported May 12 3:30 PM — May 27 3:30 PM, Taiohae, Weather by CustomWeather, © 2015

Note: Actual official high and low records may vary slightly from our data, if they occured in-between our weather recording intervals... More about our weather records

Advertising

Taiohae weather history for previous 24 hours

 ConditionsComfort  
Time TempWeatherWind HumidityBarometerVisibility
3:30 PM
Wed, May 27
81 °FScattered clouds.10 mph73%29.87 "Hg19 mi
2:30 PM82 °FWarm.12 mph72%29.88 "HgN/A
1:30 PM84 °FScattered clouds.12 mph70%29.89 "Hg19 mi
12:30 PM83 °FWarm.13 mph70%29.91 "HgN/A
10:30 AM83 °FScattered clouds.10 mph71%29.96 "Hg19 mi
9:30 AM83 °FScattered clouds.8 mph70%29.98 "Hg19 mi
8:30 AM84 °FScattered clouds.9 mph70%29.99 "Hg19 mi
7:30 AM80 °FPartly sunny.9 mph79%29.97 "Hg19 mi
6:30 AM75 °FPartly sunny.2 mph87%29.96 "Hg19 mi
5:30 AM76 °FLow clouds.5 mph82%29.93 "Hg3 mi
4:30 AM77 °FWarm.5 mph79%29.92 "HgN/A
3:30 AM78 °FWarm.10 mph84%29.90 "HgN/A
2:30 AM76 °FMild.3 mph85%29.91 "HgN/A
1:30 AM76 °FMild.3 mph85%29.92 "HgN/A
12:30 AM77 °FWarm.3 mph85%29.93 "HgN/A
11:30 PM
Tue, May 26
79 °FWarm.8 mph80%29.94 "HgN/A
10:30 PM77 °FMild.2 mph89%29.95 "HgN/A
9:30 PM77 °FMild.3 mph87%29.95 "HgN/A
8:30 PM78 °FWarm.5 mph78%29.95 "HgN/A
7:30 PM79 °FWarm.9 mph78%29.93 "HgN/A
6:30 PM79 °FWarm.8 mph80%29.90 "HgN/A
Weather by CustomWeather, © 2015

See weather overviewHow to use our weather pages